weather.gov     
National Weather Service

Regional Weather Roundup
NWS Homepage
This page is being discontinued on March 12, 2014.
The same data is available at this site. Please update your bookmarks.
Thank you, and we apologize for the inconvenience.
Please send an email to SR-SRH.Webmaster@noaa.gov with any concerns.


Current Version
Previous Version:    01  02  03  04  05  06  07  08  09  10  11  12  13  14  15  16  17  18  19  20  21  22  23  24  25  26  27  
[Printable]
924
ASUS42 KFFC 230603
RWRGA
WEATHER ROUNDUP FOR GEORGIA
NATIONAL WEATHER SERVICE PEACHTREE CITY GA
100 AM EST SUN NOV 23 2014

NOTE: "FAIR" INDICATES FEW OR NO CLOUDS BELOW 12,000 FEET WITH NO
SIGNIFICANT WEATHER AND/OR OBSTRUCTIONS TO VISIBILITY.

* = USE WITH CAUTION. THE STATIONS MARKED WITH AN ASTERISK MAY NOT
REPORT WEATHER SUCH AS PRECIPITATION, FOG, OR THUNDER AND ARE NOT
QUALITY CONTROLLED BY NWS.

THE REMARK "TC" DENOTES TEMPERATURE READING IN DEGREES CELSIUS.

GAZ001>058-230700-
NORTH GEORGIA

CITY           SKY/WX    TMP DP  RH WIND       PRES   REMARKS
ATLANTA        CLOUDY    53  31  42 E13       30.18F
6HR MIN TEMP:  53; 6HR MAX TEMP:  57;

ATHENS         CLOUDY    51  26  37 E10       30.22F
6HR MIN TEMP:  48; 6HR MAX TEMP:  51; 6HR PCP: TRACE;

CHAMBLEE       CLOUDY    50  29  44 E7        30.20F
6HR MIN TEMP:  50; 6HR MAX TEMP:  54; 6HR PCP: TRACE;

PEACHTREE CITY CLOUDY    54  45  71 E5        30.17F
6HR MIN TEMP:  54; 6HR MAX TEMP:  61; 6HR PCP: TRACE;

ROME           CLOUDY    54  30  40 SE6G17    30.16F
6HR MIN TEMP:  54; 6HR MAX TEMP:  56;

WEST ATLANTA   CLOUDY    54  32  43 E7        30.18F
6HR MIN TEMP:  54; 6HR MAX TEMP:  56;

GAINESVILLE    LGT RAIN  49  24  37 E9        30.23F
6HR MIN TEMP:  49; 6HR MAX TEMP:  50; 6HR PCP: TRACE;

CARTERSVILLE   CLOUDY    53  30  41 E7        30.17F
6HR MIN TEMP:  52; 6HR MAX TEMP:  55;



CITY           SKY/WX    TMP DP  RH WIND       PRES   REMARKS
DALTON*        CLOUDY    55  32  41 S10G18    30.15F
MARIETTA       CLOUDY    51  31  46 E8        30.18F
$$

GAZ059>098-102>109-230700-
CENTRAL GEORGIA

CITY           SKY/WX    TMP DP  RH WIND       PRES   REMARKS
AUGUSTA-BUSH   CLOUDY    50  47  89 W3        30.24F
6HR MIN TEMP:  48; 6HR MAX TEMP:  54; 6HR PCP:  0.01;

AUGUSTA-DANIEL CLOUDY    53  47  79 E6        30.24F
6HR MIN TEMP:  52; 6HR MAX TEMP:  58; 6HR PCP:  0.01;

COLUMBUS       LGT RAIN  54  51  90 E10       30.12F
6HR MIN TEMP:  54; 6HR MAX TEMP:  58; 6HR PCP: TRACE;

MACON          LGT RAIN  51  51 100 E6        30.17F
6HR MIN TEMP:  50; 6HR MAX TEMP:  57; 6HR PCP:  0.12;

ROBINS AFB     LGT RAIN  53  52  95 E5        30.16F


CITY           SKY/WX    TMP DP  RH WIND       PRES   REMARKS
LAGRANGE*      LGT RAIN  57  55  90 E5        30.13F
SYLVANIA*      CLOUDY    58  56  93 E9        30.22F
MILLEDGEVILLE* CLOUDY    50  50 100 E3        30.20F
$$

GAZ099>101-110>166-230700-
SOUTH GEORGIA

CITY           SKY/WX    TMP DP  RH WIND       PRES   REMARKS
SAVANNAH       LGT RAIN  60  55  83 NE12      30.18F
6HR MIN TEMP:  59; 6HR MAX TEMP:  60; 6HR PCP:  0.04;

VALDOSTA       LGT RAIN  63  61  93 E9        30.07F
6HR MIN TEMP:  60; 6HR MAX TEMP:  63; 6HR PCP:  0.85;

ALMA           LGT RAIN  59  57  93 CALM      30.14F FOG
6HR MIN TEMP:  58; 6HR MAX TEMP:  59; 6HR PCP:  0.15;

ST SIMONS      CLOUDY    62  60  93 E8        30.15F
6HR MIN TEMP:  61; 6HR MAX TEMP:  64; 6HR PCP:  0.01;

FT STEWART     LGT RAIN  59  56  92 NE7       30.16F
ALBANY         CLOUDY    60  58  92 E12       30.11F
HUNTER AFB     CLOUDY    59  58  96 E8        30.16F
MOODY AFB      HVY RAIN  60  59  95 NE6       30.08F FOG
BRUNSWICK        N/A     64  61  88 E7        30.15F


CITY           SKY/WX    TMP DP  RH WIND       PRES   REMARKS
BAINBRIDGE*    RAIN      63  63 100 E9        30.07F
MOULTRIE*      HVY RAIN  61  61 100 E7        30.10S
VIDALIA*       RAIN      55  55 100 N3        30.19F
WAYCROSS*      LGT RAIN  63  63  98 NE5       30.12F
DOUGLAS*       RAIN      61  59  94 E7        30.15F
$$




U.S. Dept. of Commerce
NOAA National Weather Service
1325 East West Highway
Silver Spring, MD 20910
E-mail: w-nws.webmaster@noaa.gov
Page last modified: May 16, 2007
NATIONAL WEATHER SERVICE: for Safety, for Work, for Fun - FOR LIFE